{"data":{"norad_id":56094,"epoch":"2026-05-25T04:35:49.417152Z","epoch_age_seconds":55165,"freshness":"FRESH","line1":"1 56094U 23046B   26145.19154418  .00000539  00000+0  29110-4 0  9993","line2":"2 56094  43.0033  89.3301 0001103 265.3143  94.7582 15.27577346173735","mean_motion":15.27577346,"eccentricity":0.0001103,"inclination_deg":43.0033,"raan_deg":89.3301,"arg_perigee_deg":265.3143,"mean_anomaly_deg":94.7582,"bstar":2.911e-5,"rev_number":17373,"period_min":94.266912491906,"perigee_km":482.30025337898,"apogee_km":483.81383278488,"semimajor_km":6861.1940430819,"source":"CELESTRAK","updated_at":"2026-05-25T13:38:17.953039Z"}}